International Skating Union - Official Site

ESSENT ISU WORLD ALLROUND CHAMPIONSHIPS 2011
February 12-13, 2011

Draw | Lap Times | Index | Classification

Referee: Dan  IMMERFALL  (USA)
Starter: Yves  BELANGER  (CAN)
StartTime: EndTime: Air Temp: Ice Temp: Humidity:
15:19 17:11 16℃ -8.5℃ 28%
Result 5000m Men
Rankings as of Feb 12 2011 4:15PM
Rank: No.: Name: Nation: Time: Behind: Points:
1 20 Ivan  SKOBREV RUS RUS 6:10.99200m - 18.92 - (18.9)
600m - 48.21 - (29.2)
1000m - 1:17.73 - (29.5)
1400m - 1:47.45 - (29.7)
1800m - 2:16.83 - (29.3)
2200m - 2:46.36 - (29.5)
2600m - 3:15.76 - (29.4)
3000m - 3:45.28 - (29.5)
3400m - 4:14.50 - (29.2)
3800m - 4:43.27 - (28.7)
4200m - 5:12.06 - (28.7)
4600m - 5:41.50 - (29.4)
5000m - 6:10.99 - (29.4)
37.099
2 12 Koen  VERWEIJ NED NED 6:12.20200m - 18.60 - (18.6)
600m - 46.98 - (28.3)
1000m - 1:15.98 - (29.0)
1400m - 1:45.06 - (29.0)
1800m - 2:14.00 - (28.9)
2200m - 2:43.10 - (29.1)
2600m - 3:12.33 - (29.2)
3000m - 3:41.74 - (29.4)
3400m - 4:11.44 - (29.7)
3800m - 4:41.31 - (29.8)
4200m - 5:11.40 - (30.0)
4600m - 5:41.70 - (30.3)
5000m - 6:12.20 - (30.5)
1,21 37.220
3 13 Håvard  BØKKO NOR NOR 6:12.98200m - 18.29 - (18.2)
600m - 47.07 - (28.7)
1000m - 1:16.46 - (29.3)
1400m - 1:46.19 - (29.7)
1800m - 2:15.38 - (29.1)
2200m - 2:44.72 - (29.3)
2600m - 3:14.12 - (29.4)
3000m - 3:43.84 - (29.7)
3400m - 4:13.48 - (29.6)
3800m - 4:43.22 - (29.7)
4200m - 5:12.96 - (29.7)
4600m - 5:42.96 - (30.0)
5000m - 6:12.98 - (30.0)
1,99 37.298
4 9 Jan  BLOKHUIJSEN NED NED 6:14.18200m - 18.25 - (18.2)
600m - 47.44 - (29.1)
1000m - 1:16.82 - (29.3)
1400m - 1:46.12 - (29.3)
1800m - 2:15.56 - (29.4)
2200m - 2:44.95 - (29.3)
2600m - 3:14.54 - (29.5)
3000m - 3:44.09 - (29.5)
3400m - 4:13.96 - (29.8)
3800m - 4:43.60 - (29.6)
4200m - 5:13.41 - (29.8)
4600m - 5:43.44 - (30.0)
5000m - 6:14.18 - (30.7)
3,19 37.418
5 16 Shane  DOBBIN NZL NZL 6:15.69200m - 19.53 - (19.5)
600m - 49.12 - (29.5)
1000m - 1:19.04 - (29.9)
1400m - 1:48.92 - (29.8)
1800m - 2:19.03 - (30.1)
2200m - 2:48.98 - (29.9)
2600m - 3:18.80 - (29.8)
3000m - 3:48.46 - (29.6)
3400m - 4:18.28 - (29.8)
3800m - 4:47.78 - (29.5)
4200m - 5:17.11 - (29.3)
4600m - 5:46.29 - (29.1)
5000m - 6:15.69 - (29.4)
4,70 37.569
6 10 Wouter  OLDE HEUVEL NED NED 6:17.45200m - 18.73 - (18.7)
600m - 48.05 - (29.3)
1000m - 1:17.32 - (29.2)
1400m - 1:46.69 - (29.3)
1800m - 2:16.09 - (29.4)
2200m - 2:45.44 - (29.3)
2600m - 3:15.05 - (29.6)
3000m - 3:44.86 - (29.8)
3400m - 4:14.80 - (29.9)
3800m - 4:44.98 - (30.1)
4200m - 5:15.43 - (30.4)
4600m - 5:46.23 - (30.8)
5000m - 6:17.45 - (31.2)
6,46 37.745
7 4 Alexis  CONTIN FRA FRA 6:17.72200m - 18.56 - (18.5)
600m - 47.12 - (28.5)
1000m - 1:16.38 - (29.2)
1400m - 1:45.84 - (29.4)
1800m - 2:15.71 - (29.8)
2200m - 2:45.11 - (29.4)
2600m - 3:14.92 - (29.8)
3000m - 3:45.03 - (30.1)
3400m - 4:15.39 - (30.3)
3800m - 4:45.66 - (30.2)
4200m - 5:16.07 - (30.4)
4600m - 5:46.81 - (30.7)
5000m - 6:17.72 - (30.9)
6,73 37.772
8 24 Jonathan  KUCK USA USA 6:17.88200m - 18.79 - (18.7)
600m - 47.54 - (28.7)
1000m - 1:16.85 - (29.3)
1400m - 1:46.42 - (29.5)
1800m - 2:15.79 - (29.3)
2200m - 2:45.33 - (29.5)
2600m - 3:15.27 - (29.9)
3000m - 3:45.83 - (30.5)
3400m - 4:16.36 - (30.5)
3800m - 4:46.90 - (30.5)
4200m - 5:17.41 - (30.5)
4600m - 5:47.66 - (30.2)
5000m - 6:17.88 - (30.2)
6,89 37.788
9 23 Brian  HANSEN USA USA 6:19.14200m - 19.13 - (19.1)
600m - 48.32 - (29.1)
1000m - 1:17.86 - (29.5)
1400m - 1:47.28 - (29.4)
1800m - 2:17.06 - (29.7)
2200m - 2:46.63 - (29.5)
2600m - 3:16.26 - (29.6)
3000m - 3:46.18 - (29.9)
3400m - 4:16.12 - (29.9)
3800m - 4:46.08 - (29.9)
4200m - 5:16.63 - (30.5)
4600m - 5:47.68 - (31.0)
5000m - 6:19.14 - (31.4)
8,15 37.914
10 11 Renz  ROTTEVEEL NED NED 6:20.25200m - 18.77 - (18.7)
600m - 47.86 - (29.0)
1000m - 1:17.38 - (29.5)
1400m - 1:46.39 - (29.0)
1800m - 2:15.65 - (29.2)
2200m - 2:45.09 - (29.4)
2600m - 3:14.78 - (29.6)
3000m - 3:44.82 - (30.0)
3400m - 4:15.31 - (30.4)
3800m - 4:45.61 - (30.3)
4200m - 5:16.46 - (30.8)
4600m - 5:47.96 - (31.5)
5000m - 6:20.25 - (32.2)
9,26 38.025
11 14 Henrik  CHRISTIANSEN NOR NOR 6:20.74200m - 19.49 - (19.4)
600m - 49.39 - (29.9)
1000m - 1:19.19 - (29.8)
1400m - 1:48.67 - (29.4)
1800m - 2:18.13 - (29.4)
2200m - 2:47.57 - (29.4)
2600m - 3:17.35 - (29.7)
3000m - 3:47.36 - (30.0)
3400m - 4:17.45 - (30.0)
3800m - 4:47.76 - (30.3)
4200m - 5:18.57 - (30.8)
4600m - 5:49.58 - (31.0)
5000m - 6:20.74 - (31.1)
9,75 38.074
12 15 Sverre  LUNDE PEDERSEN NOR NOR 6:22.83200m - 19.57 - (19.5)
600m - 49.69 - (30.1)
1000m - 1:19.67 - (29.9)
1400m - 1:49.49 - (29.8)
1800m - 2:19.61 - (30.1)
2200m - 2:49.62 - (30.0)
2600m - 3:19.72 - (30.1)
3000m - 3:49.85 - (30.1)
3400m - 4:19.96 - (30.1)
3800m - 4:50.18 - (30.2)
4200m - 5:20.52 - (30.3)
4600m - 5:51.36 - (30.8)
5000m - 6:22.83 - (31.4)
11,84 38.283
13 8 Dmitry  BABENKO KAZ KAZ 6:22.96200m - 18.99 - (18.9)
600m - 48.76 - (29.7)
1000m - 1:19.29 - (30.5)
1400m - 1:49.39 - (30.1)
1800m - 2:19.53 - (30.1)
2200m - 2:49.49 - (29.9)
2600m - 3:19.54 - (30.0)
3000m - 3:49.92 - (30.3)
3400m - 4:20.42 - (30.5)
3800m - 4:51.10 - (30.6)
4200m - 5:22.11 - (31.0)
4600m - 5:52.89 - (30.7)
5000m - 6:22.96 - (30.0)
11,97 38.296
14 22 Shani  DAVIS USA USA 6:23.58200m - 18.61 - (18.6)
600m - 47.42 - (28.8)
1000m - 1:17.15 - (29.7)
1400m - 1:47.31 - (30.1)
1800m - 2:17.25 - (29.9)
2200m - 2:47.20 - (29.9)
2600m - 3:17.32 - (30.1)
3000m - 3:47.59 - (30.2)
3400m - 4:17.91 - (30.3)
3800m - 4:48.49 - (30.5)
4200m - 5:19.38 - (30.8)
4600m - 5:51.14 - (31.7)
5000m - 6:23.58 - (32.4)
12,59 38.358
15 2 Lucas  MAKOWSKY CAN CAN 6:26.73200m - 18.40 - (18.4)
600m - 47.46 - (29.0)
1000m - 1:17.05 - (29.5)
1400m - 1:46.74 - (29.6)
1800m - 2:16.50 - (29.7)
2200m - 2:46.40 - (29.9)
2600m - 3:16.62 - (30.2)
3000m - 3:47.09 - (30.4)
3400m - 4:17.74 - (30.6)
3800m - 4:49.12 - (31.3)
4200m - 5:20.92 - (31.8)
4600m - 5:53.37 - (32.4)
5000m - 6:26.73 - (33.3)
15,74 38.673
16 5 Robert  LEHMANN GER GER 6:29.72200m - 18.79 - (18.7)
600m - 48.82 - (30.0)
1000m - 1:19.37 - (30.5)
1400m - 1:49.63 - (30.2)
1800m - 2:20.19 - (30.5)
2200m - 2:50.80 - (30.6)
2600m - 3:22.08 - (31.2)
3000m - 3:53.52 - (31.4)
3400m - 4:25.12 - (31.6)
3800m - 4:56.51 - (31.3)
4200m - 5:28.13 - (31.6)
4600m - 5:58.94 - (30.8)
5000m - 6:29.72 - (30.7)
18,73 38.972
17 6 Luca  STEFANI ITA ITA 6:33.23200m - 19.48 - (19.4)
600m - 50.05 - (30.5)
1000m - 1:20.59 - (30.5)
1400m - 1:51.05 - (30.4)
1800m - 2:21.84 - (30.7)
2200m - 2:52.75 - (30.9)
2600m - 3:23.96 - (31.2)
3000m - 3:55.23 - (31.2)
3400m - 4:26.71 - (31.4)
3800m - 4:58.48 - (31.7)
4200m - 5:30.25 - (31.7)
4600m - 6:01.75 - (31.5)
5000m - 6:33.23 - (31.4)
22,24 39.323
18 1 Mathieu  GIROUX CAN CAN 6:34.29200m - 18.98 - (18.9)
600m - 48.18 - (29.2)
1000m - 1:18.12 - (29.9)
1400m - 1:48.05 - (29.9)
1800m - 2:18.08 - (30.0)
2200m - 2:48.31 - (30.2)
2600m - 3:18.95 - (30.6)
3000m - 3:50.04 - (31.0)
3400m - 4:21.65 - (31.6)
3800m - 4:53.95 - (32.3)
4200m - 5:27.16 - (33.2)
4600m - 6:00.65 - (33.4)
5000m - 6:34.29 - (33.6)
23,30 39.429
19 17 Jan  SZYMANSKI POL POL 6:34.72200m - 18.81 - (18.8)
600m - 48.36 - (29.5)
1000m - 1:17.41 - (29.0)
1400m - 1:47.39 - (29.9)
1800m - 2:17.53 - (30.1)
2200m - 2:48.06 - (30.5)
2600m - 3:18.64 - (30.5)
3000m - 3:49.45 - (30.8)
3400m - 4:20.79 - (31.3)
3800m - 4:53.01 - (32.2)
4200m - 5:26.39 - (33.3)
4600m - 6:00.54 - (34.1)
5000m - 6:34.72 - (34.1)
23,73 39.472
20 18 Konrad  NIEDZWIEDZKI POL POL 6:35.08200m - 19.39 - (19.3)
600m - 49.95 - (30.5)
1000m - 1:20.94 - (30.9)
1400m - 1:51.64 - (30.7)
1800m - 2:22.26 - (30.6)
2200m - 2:53.03 - (30.7)
2600m - 3:24.08 - (31.0)
3000m - 3:55.24 - (31.1)
3400m - 4:26.52 - (31.2)
3800m - 4:58.09 - (31.5)
4200m - 5:29.99 - (31.9)
4600m - 6:02.06 - (32.0)
5000m - 6:35.08 - (33.0)
24,09 39.508
21 19 Pavel  BAYNOV RUS RUS 6:35.66200m - 19.57 - (19.5)
600m - 49.89 - (30.3)
1000m - 1:20.49 - (30.6)
1400m - 1:51.67 - (31.1)
1800m - 2:23.15 - (31.4)
2200m - 2:54.89 - (31.7)
2600m - 3:26.52 - (31.6)
3000m - 3:58.45 - (31.9)
3400m - 4:29.86 - (31.4)
3800m - 5:01.58 - (31.7)
4200m - 5:33.19 - (31.6)
4600m - 6:04.74 - (31.5)
5000m - 6:35.66 - (30.9)
24,67 39.566
22 7 Shota  NAKAMURA JPN JPN 6:36.77200m - 19.57 - (19.5)
600m - 50.73 - (31.1)
1000m - 1:21.81 - (31.0)
1400m - 1:52.76 - (30.9)
1800m - 2:23.94 - (31.1)
2200m - 2:55.05 - (31.1)
2600m - 3:26.33 - (31.2)
3000m - 3:57.60 - (31.2)
3400m - 4:28.98 - (31.3)
3800m - 5:00.76 - (31.7)
4200m - 5:32.64 - (31.8)
4600m - 6:04.70 - (32.0)
5000m - 6:36.77 - (32.0)
25,78 39.677
23 3 Justin  WARSYLEWICZ CAN CAN 6:37.54200m - 18.88 - (18.8)
600m - 48.63 - (29.7)
1000m - 1:19.21 - (30.5)
1400m - 1:49.86 - (30.6)
1800m - 2:20.41 - (30.5)
2200m - 2:51.07 - (30.6)
2600m - 3:22.11 - (31.0)
3000m - 3:53.17 - (31.0)
3400m - 4:24.85 - (31.6)
3800m - 4:57.27 - (32.4)
4200m - 5:30.31 - (33.0)
4600m - 6:03.63 - (33.3)
5000m - 6:37.54 - (33.9)
26,55 39.754
24 21 Joel  ERIKSSON SWE SWE 6:38.38200m - 18.75 - (18.7)
600m - 48.00 - (29.2)
1000m - 1:17.94 - (29.9)
1400m - 1:47.87 - (29.9)
1800m - 2:18.35 - (30.4)
2200m - 2:49.34 - (30.9)
2600m - 3:20.85 - (31.5)
3000m - 3:52.85 - (32.0)
3400m - 4:25.21 - (32.3)
3800m - 4:57.75 - (32.5)
4200m - 5:30.70 - (32.9)
4600m - 6:03.99 - (33.2)
5000m - 6:38.38 - (34.3)
27,39 39.838